SCP
0 0 0 0 0 0 0 0 0 0 0 0 0 0 0 0 0 0 0 0 0 0 0 0 0 0 0 0 0 0 0 0 0 0 0 0 0 0 0 0 0 0 0 0 0 0 0 0 0 0 0 0 0 1
0 0 0 0 0 0 0 0 0 0 0 0 0 0 0 0 0 0 0 0 0 0 0 0 0 0 0 0 0 0 0 1 0 0 0 0 0 0 0 0 0 0 0 0 0 0 0 0 0 0 0 0 0 0
0 0 0 0 -0 0 0 0 0 0 0 0 0 0 0 0 0 0 0 0 0 0 0 0 0 0 0 0 0 0 0 1 1 0 0 0 1 0 0 0 0 0 0 0 0 0 0 0 0 0 0 0 0 0
0 0 0 0 0 0 0 0 0 0 0 0 0 0 0 0 0 0 0 0 0 0 0 0 0 0 0 0 0 0 0 0 1 0 0 1 1 0 0 0 0 0 0 0 0 0 0 0 0 0 0 0 0 0
0 0 0 0 0 0 0 0 0 0 0 0 0 0 0 0 0 0 0 0 0 0 0 0 0 0 0 0 0 0 0 0 0 0 0 0 0 0 0 0 0 0 0 0 0 0 0 0 0 0 0 0 0 0
0 0 0 0 0 0 0 0 0 0 0 0 0 0 0 0 0 0 0 0 0 0 0 0 0 0 0 0 0 0 0 0 0 0 0 0 0 0 0 0 0 0 0 0 0 0 0 0 0 0 0 0 0 0
0 0 0 0 0 0 0 0 0 0 0 0 0 0 0 0 0 0 0 0 0 0 0 0 0 0 0 0 0 0 0 0 0 0 0 0 0 0 0 0 0 0 0 0 0 0 0 0 0 0 0 0 0 0
0 0 0 0 0 0 0 0 0 0 0 0 0 0 0 0 0 0 0 0 0 0 0 0 0 0 0 0 0 0 0 0 0 0 0 0 0 0 0 0 0 0 0 0 0 0 0 0 0 0 0 0 0 0
0 0 0 0 0 0 0 0 0 0 0 0 0 0 0 0 0 0 0 0 0 0 0 0 0 0 0 0 0 0 0 0 0 0 0 0 0 0 0 0 0 0 0 0 0 0 0 0 0 0 0 0 0 0
0 0 0 0 0 0 0 0 0 0 0 0 0 0 0 0 0 0 0 0 0 0 0 0 0 0 0 0 0 0 0 0 0 0 0 0 0 0 0 0 0 0 0 0 0 0 0 0 0 0 0 0 0 0
0 0 0 0 0 0 0 0 0 0 0 0 0 0 0 0 0 0 0 0 0 0 0 0 0 0 0 0 0 0 0 0 0 0 0 0 0 0 0 0 0 0 0 0 0 0 0 0 0 0 0 0 0 0
0 0 0 0 0 0 0 0 0 0 0 0 0 0 0 0 0 0 0 0 0 0 0 0 0 0 0 0 0 0 0 0 0 0 0 0 0 0 0 0 0 0 0 0 0 0 0 0 0 0 0 0 0 0
0 0 0 0 0 0 0 0 0 0 0 0 0 0 0 0 0 0 0 0 0 0 0 0 0 0 0 0 0 0 0 0 0 0 0 0 0 0 0 0 0 0 0 0 0 0 0 0 0 0 0 0 0 0
0 0 0 0 0 0 0 0 0 0 0 0 0 0 0 0 0 0 0 0 0 0 0 0 0 0 0 0 0 0 0 0 0 0 0 0 0 0 0 0 0 0 0 0 0 0 0 0 0 0 0 0 0 0
0 0 0 0 0 0 0 0 0 0 0 0 0 0 0 0 0 0 0 0 0 0 0 0 0 0 0 0 0 0 0 0 0 0 0 0 0 0 0 0 0 0 0 0 0 0 0 0 0 0 0 0 0 0
0 0 0 0 0 0 0 0 0 0 0 0 0 0 0 0 0 0 0 0 0 0 0 0 0 0 0 0 0 0 0 0 0 0 0 0 0 0 0 0 0 0 0 0 0 0 0 0 0 0 0 0 0 0
0 0 0 0 0 0 0 0 0 0 0 0 0 0 0 0 0 0 0 0 0 0 0 0 0 0 0 0 0 0 0 0 0 0 0 0 0 0 0 0 0 0 0 0 0 0 0 0 0 0 0 0 0 0
0 0 0 0 0 0 0 0 0 0 0 0 0 0 0 0 0 0 0 0 0 0 0 0 0 0 0 0 0 0 0 0 0 0 0 0 0 0 0 0 0 0 0 0 0 0 0 0 0 0 0 0 0 0
0 0 0 0 0 0 0 0 0 0 0 0 0 0 0 0 0 0 0 0 0 0 0 0 0 0 0 0 0 0 0 0 0 0 0 0 0 0 0 0 0 0 0 0 0 0 0 0 0 0 0 0 0 0
0 0 0 0 0 0 0 0 0 0 0 0 0 0 0 0 0 0 0 0 0 0 0 0 0 0 0 0 0 0 0 0 0 0 0 0 0 0 0 0 0 0 0 0 0 0 0 0 0 0 0 0 0 0
0 0 0 0 0 0 0 0 0 0 0 0 0 0 0 0 0 0 0 0 0 0 0 0 0 0 0 0 0 0 0 0 0 0 0 0 0 0 0 0 0 0 0 0 0 0 0 0 0 0 0 0 0 0
0 0 0 0 0 0 0 0 0 0 0 0 0 0 0 0 0 0 0 0 0 0 0 0 0 0 0 0 0 0 0 0 0 0 0 0 0 0 0 0 0 0 0 0 0 0 0 0 0 0 0 0 0 0
0 0 -0 0 0 0 0 0 0 0 0 0 0 0 0 0 0 0 0 0 0 0 0 0 0 0 0 0 0 0 0 0 0 0 0 0 0 0 0 0 0 0 0 0 0 0 0 0 0 0 0 0 0 0
0 0 0 0 0 0 0 0 0 0 0 0 0 0 0 0 0 0 0 0 0 0 0 0 0 0 0 0 0 0 0 0 0 0 0 0 0 0 0 0 0 0 0 0 0 0 0 0 0 0 0 0 0 0
0 0 0 0 0 0 0 0 0 0 0 0 0 0 0 0 0 0 0 0 0 0 0 0 0 0 0 0 0 0 0 0 0 0 0 0 0 0 0 0 0 0 0 0 0 0 0 0 0 0 0 0 0 0
0 0 0 0 0 0 0 0 0 0 0 0 0 0 0 0 0 0 0 0 0 0 0 0 0 0 0 0 0 0 0 0 0 0 0 0 0 0 0 0 0 0 0 0 0 0 0 0 0 0 0 0 0 0
0 0 0 0 0 0 0 0 0 0 0 0 0 0 0 0 0 0 0 0 0 0 0 0 0 0 0 0 0 0 0 0 0 0 0 0 0 0 0 0 0 0 0 0 0 0 0 0 0 0 0 0 0 0
0 0 0 0 0 0 0 0 0 0 0 0 0 0 0 0 0 0 0 0 0 0 0 0 0 0 0 0 0 0 0 0 0 0 0 0 0 0 0 0 0 0 0 0 0 0 0 0 0 0 0 0 0 0
0 0 0 0 0 0 0 0 0 0 0 0 0 0 0 0 0 0 0 0 0 0 0 0 0 0 0 0 0 0 0 0 0 0 0 0 0 0 0 0 0 0 0 0 0 0 0 0 0 0 0 0 0 0
0 0 0 0 0 0 0 0 0 0 0 0 0 0 0 0 0 0 0 0 0 0 0 0 0 0 0 0 0 0 0 0 0 0 0 0 0 0 0 0 0 0 0 0 0 0 0 0 0 0 0 0 0 0
0 0 0 0 0 0 0 0 0 0 0 0 0 0 0 0 0 0 0 0 0 0 0 0 0 0 0 0 0 0 0 0 0 0 0 0 0 0 0 0 0 0 0 0 0 0 0 0 0 0 0 0 0 0
0 0 0 0 0 0 0 0 0 0 0 0 0 0 0 0 0 0 0 0 0 0 0 0 0 0 0 0 0 0 0 0 0 0 0 0 0 0 0 0 0 0 0 0 0 0 0 0 0 0 0 0 0 0
0 0 0 0 0 0 0 0 0 0 0 0 0 0 0 0 0 0 0 0 0 0 0 0 0 0 0 0 0 0 0 0 0 0 0 0 0 0 0 0 0 0 0 0 0 0 0 0 0 0 0 0 0 0
Wind_Speed_500mb
27 25 23 22 23 26 27 29 31 32 30 31 31 27 26 26 25 23 19 20 20 10 31 21 18 10 9 4 3 6 2 2 3 5 4 4 4 3 2 1 1 1 1 2 3 3 4 6 4 7 4 16 16 15
23 21 20 19 23 28 27 27 30 32 31 32 32 28 27 28 27 25 18 19 22 27 19 18 24 23 31 35 23 6 4 3 5 6 3 5 4 4 1 3 2 2 3 3 9 4 4 11 18 19 30 22 19 22
23 21 16 20 29 35 30 27 29 29 28 31 32 29 28 29 29 27 23 14 15 18 40 44 37 12 9 9 16 7 4 5 5 7 9 4 4 5 5 5 5 6 7 5 4 2 13 17 26 27 24 24 30 30
22 22 19 25 29 36 27 26 28 28 26 34 31 29 29 30 30 30 27 25 19 6 8 14 8 23 22 17 17 15 13 6 10 8 4 3 3 9 4 2 6 1 15 5 10 23 20 2 16 24 28 38 35 26
20 24 22 32 27 23 21 26 26 32 28 33 31 29 29 29 29 28 28 33 30 13 5 18 28 21 20 15 16 16 10 9 7 4 3 3 5 7 3 2 7 17 10 8 11 5 7 19 22 34 33 26 26 19
18 21 26 34 27 22 21 26 23 28 40 28 30 28 28 29 27 19 11 33 38 36 9 6 11 14 27 26 20 21 13 9 6 5 4 5 6 5 6 6 9 14 19 24 15 10 19 29 27 20 22 29 35 33
21 20 24 28 24 22 21 25 24 26 34 28 29 27 27 30 31 29 10 13 44 36 9 9 9 7 19 25 31 24 17 7 6 5 4 6 7 10 4 7 11 18 22 24 23 25 23 12 13 28 32 38 38 32
25 24 26 23 20 20 20 23 28 23 34 30 27 26 27 29 30 41 22 18 49 43 11 6 7 4 18 13 15 19 14 13 7 5 4 6 8 5 7 17 19 11 18 12 11 14 23 26 30 36 40 42 37 26
26 26 25 22 22 17 21 19 31 27 31 26 25 24 22 26 22 33 22 29 25 23 7 9 6 7 23 13 13 13 13 5 7 7 5 7 4 8 9 8 7 11 11 11 10 14 18 24 31 35 36 32 28 18
28 26 24 23 22 16 23 24 23 36 27 25 27 15 13 16 23 17 21 24 24 22 15 10 9 5 20 13 7 11 7 5 7 5 8 7 6 16 13 16 13 3 2 2 9 12 21 26 28 30 25 18 15 9
27 24 23 22 20 19 23 27 23 30 26 28 17 13 12 23 30 18 14 16 18 11 19 14 19 6 16 9 9 10 7 7 7 7 6 6 5 6 1 2 6 5 6 5 6 9 10 15 17 20 18 16 9 9
26 24 21 20 19 24 30 33 36 39 21 20 10 8 12 19 15 13 12 11 12 13 20 28 25 15 10 12 6 10 5 5 7 17 7 6 4 10 9 9 9 8 7 5 3 4 7 12 15 20 19 14 11 14
27 26 20 21 20 26 40 37 49 48 19 4 5 6 10 11 6 14 17 7 8 13 19 21 17 17 11 9 4 6 9 7 19 6 6 3 13 15 13 13 12 8 6 3 4 4 4 10 14 17 21 15 19 24
27 27 25 23 24 33 45 36 45 48 9 8 4 9 12 10 11 9 16 14 21 26 46 41 25 10 9 7 4 9 5 10 7 10 8 11 26 22 15 13 13 13 11 5 5 7 5 9 14 21 26 24 23 19
27 28 29 26 32 39 40 46 48 26 16 8 12 13 15 22 12 19 32 40 34 37 52 25 16 13 7 5 6 6 8 8 7 9 5 21 32 24 17 15 15 11 8 6 11 13 12 16 21 24 29 28 20 15
30 33 32 29 38 45 43 56 53 21 7 14 14 7 10 7 12 15 31 23 40 42 44 25 10 9 8 7 10 6 12 8 8 7 12 37 33 25 23 22 17 11 9 11 13 15 17 18 20 23 24 24 22 24
31 35 23 37 47 47 51 47 37 11 17 10 15 20 22 24 18 22 35 32 36 42 9 11 8 7 10 7 7 5 10 6 13 17 33 33 30 29 27 21 17 14 12 14 16 15 16 19 21 24 26 25 23 22
39 25 36 52 49 50 47 29 17 21 17 14 13 12 17 22 13 21 25 40 32 24 30 7 16 6 8 11 7 8 8 14 25 37 37 34 29 26 24 23 19 14 12 11 10 8 12 18 19 21 24 26 26 29
32 33 48 56 49 43 20 20 19 8 14 9 19 18 9 6 12 20 29 50 23 25 30 11 7 5 6 5 7 19 25 33 36 39 35 28 25 25 23 18 13 12 7 7 4 3 11 15 16 19 21 22 25 30
21 52 46 64 62 10 8 13 11 5 10 11 11 8 4 5 20 26 33 33 28 16 12 6 5 4 5 15 20 27 36 41 46 39 29 22 22 20 15 11 11 8 4 1 3 5 9 14 20 23 26 26 28 29
26 55 63 52 52 20 11 6 4 11 10 10 4 8 7 19 18 20 24 20 13 9 8 8 20 36 42 45 40 39 38 32 31 31 26 22 19 14 10 8 2 4 7 7 8 9 10 12 15 21 24 25 27 29
27 59 38 42 15 15 11 10 8 10 6 6 10 10 11 12 18 24 24 24 14 13 14 33 42 44 46 44 39 35 32 28 25 22 19 16 14 9 3 4 8 10 10 9 9 7 7 11 18 23 26 28 29 31
49 39 18 13 11 5 5 15 10 10 8 15 16 10 9 11 16 16 16 16 16 25 33 38 36 38 39 35 30 28 24 19 15 11 7 3 2 5 8 8 4 2 3 0 6 13 20 25 25 24 25 24 24 25
31 18 11 11 5 9 11 16 13 2 9 5 6 9 13 18 17 15 7 10 22 30 33 28 23 23 24 20 17 15 11 7 3 1 3 1 1 1 3 4 2 6 11 16 19 20 19 18 19 21 24 26 26 26
7 11 8 11 10 10 6 9 8 9 8 6 8 3 2 9 5 7 6 16 30 28 22 14 10 10 12 16 16 15 13 12 12 12 13 8 3 3 8 12 15 18 20 22 21 20 19 20 21 23 25 27 32 36
7 9 10 11 6 7 4 2 5 4 3 5 6 4 3 7 8 8 8 18 28 33 32 29 23 25 28 26 26 24 22 17 13 8 8 10 12 13 17 21 24 26 27 22 19 18 20 22 24 28 32 34 39 44
6 7 8 10 8 11 9 9 10 12 7 6 4 5 6 8 7 6 10 22 28 32 33 33 34 35 34 31 27 23 20 17 14 13 14 14 15 15 15 16 14 10 7 10 15 19 23 27 31 37 42 45 47 47
8 11 7 10 14 12 7 7 5 4 3 4 6 7 6 5 5 5 12 20 26 29 29 27 24 22 19 16 14 13 13 15 16 17 17 17 21 21 24 26 26 23 20 18 21 27 33 39 45 49 49 45 44 44
13 11 11 15 14 15 14 8 6 5 3 4 7 6 9 13 14 16 19 22 19 15 11 8 6 5 5 8 10 12 14 17 21 23 26 26 23 20 19 18 17 20 25 28 32 34 38 40 37 34 34 39 45 46
17 14 10 12 9 9 12 14 19 24 22 25 35 39 40 39 33 26 25 19 12 8 8 6 7 9 10 11 10 11 15 17 18 16 18 20 23 24 25 25 28 30 32 35 34 34 33 35 33 33 36 38 38 36
17 25 19 15 10 16 22 28 32 37 42 39 38 43 31 21 26 35 36 31 25 19 13 11 11 13 12 12 12 12 14 15 18 22 27 30 33 31 30 32 32 33 36 37 38 38 39 39 39 39 40 41 40 40
15 13 9 7 8 15 15 14 15 18 20 23 16 15 15 10 9 13 27 24 20 23 26 21 15 15 15 13 14 15 15 18 23 26 29 30 29 30 30 31 36 41 42 44 46 46 47 48 47 46 46 46 45 43
11 15 13 7 6 6 11 6 6 6 10 9 10 11 12 8 6 5 11 21 25 26 24 19 15 12 13 15 18 21 23 26 29 31 36 41 43 44 43 39 38 41 39 33 39 39 39 40 43 45 47 50 50 48
Wind_Direction_500mb
237 243 253 269 282 285 277 254 237 232 227 214 211 216 220 219 216 212 208 211 210 248 263 267 277 295 349 8 336 353 187 193 78 102 166 159 202 118 170 322 322 12 15 90 135 257 280 176 200 236 8 327 327 314
226 235 246 270 286 290 278 250 233 231 224 211 210 214 216 215 215 213 211 215 226 236 262 264 256 240 276 278 271 276 271 199 186 110 163 141 159 170 183 159 179 214 266 328 224 294 292 255 260 284 301 301 304 304
227 235 251 280 287 285 272 245 229 231 217 207 208 211 214 213 214 215 201 190 215 253 281 275 264 253 227 277 225 248 255 202 173 143 141 118 162 167 164 200 186 211 181 243 273 87 263 293 299 303 317 322 313 291
231 231 244 267 275 281 263 234 224 211 212 209 207 208 212 212 216 219 213 201 204 227 269 272 252 244 253 243 221 231 270 217 146 121 118 138 172 203 189 76 240 92 156 216 251 278 294 344 351 334 328 328 322 304
236 232 242 267 289 288 250 226 226 208 204 215 207 205 210 212 218 226 224 207 203 218 289 293 273 229 225 229 234 215 210 201 183 143 136 155 120 160 87 243 239 190 198 210 269 250 252 294 318 322 321 334 338 329
247 247 248 269 289 288 247 219 225 211 207 212 204 201 207 213 216 219 241 222 207 210 294 291 318 247 231 236 209 194 192 181 168 163 158 172 178 178 181 224 258 234 249 260 270 277 290 296 304 328 320 324 326 318
256 263 256 273 284 288 244 217 217 209 215 209 204 199 205 215 211 195 200 188 191 191 234 271 264 227 209 196 186 194 189 177 169 178 193 165 177 183 201 233 253 289 302 289 277 265 279 262 303 325 325 326 322 313
257 262 267 281 287 291 230 220 209 214 205 199 198 197 205 219 222 220 190 139 172 178 226 252 259 245 175 165 171 180 183 188 198 190 183 184 159 194 241 245 272 259 320 297 322 285 267 294 313 320 317 318 325 324
254 260 261 274 289 282 215 222 201 207 181 185 194 195 202 217 222 222 228 210 201 204 247 207 222 197 175 164 143 162 165 166 204 210 203 184 162 221 232 250 315 310 298 286 341 357 341 329 325 325 323 330 336 321
252 257 253 269 287 262 205 196 193 171 173 180 185 174 191 206 202 196 178 171 177 210 232 244 208 204 180 169 143 136 163 156 186 179 148 217 239 248 256 265 291 314 23 67 5 356 349 3 7 14 6 354 335 312
247 244 250 260 277 227 204 187 183 170 170 180 180 210 200 183 191 200 195 177 186 203 200 221 200 177 192 192 148 188 151 162 206 155 211 189 242 188 194 184 188 164 95 82 357 356 23 20 27 31 33 21 339 279
240 233 250 258 260 213 194 180 179 181 173 183 208 239 178 181 204 204 188 176 198 194 180 195 203 190 177 178 154 171 155 171 205 145 182 207 186 166 139 117 116 119 103 66 28 32 39 29 37 28 20 6 338 302
232 232 251 265 241 207 188 179 181 188 194 179 226 220 206 188 216 197 186 186 187 171 164 164 165 169 162 183 114 173 174 175 129 182 202 188 169 167 144 113 101 100 91 70 20 12 25 35 23 12 9 347 335 328
233 237 252 255 220 191 192 171 174 192 174 232 179 242 209 194 234 197 182 172 182 182 183 186 152 151 149 161 212 189 101 148 161 184 198 168 180 170 155 127 107 101 87 61 12 348 322 358 360 355 352 348 344 344
233 243 250 234 201 192 173 192 196 176 189 225 224 208 218 228 225 211 184 181 188 187 183 159 148 161 142 177 218 158 160 177 196 197 188 178 171 158 148 143 126 111 101 75 51 33 20 1 355 348 345 351 351 347
239 251 236 205 186 184 172 191 197 195 191 239 244 261 247 254 211 194 192 189 183 175 164 163 133 175 165 184 177 181 158 182 184 196 152 160 163 153 145 142 138 132 103 71 58 47 36 16 358 352 351 349 346 334
239 236 199 185 177 177 188 182 183 198 232 219 235 247 259 275 238 188 192 195 178 159 167 138 154 164 121 136 175 191 184 166 158 140 152 158 157 155 153 150 142 127 111 87 80 65 38 15 357 356 354 354 359 350
220 182 172 171 171 156 160 168 189 220 226 237 273 272 236 245 228 174 177 179 163 192 167 159 119 159 158 160 197 182 155 134 130 143 148 153 155 158 155 150 142 133 115 99 72 46 21 7 1 3 356 357 4 356
164 177 168 177 177 166 174 194 242 230 227 270 276 275 246 210 183 180 172 170 166 166 143 139 113 141 160 171 142 153 151 144 141 144 148 153 156 158 158 154 152 150 116 101 107 33 5 354 349 348 347 345 348 346
174 170 181 172 177 195 167 236 218 207 45 318 289 270 272 130 117 129 137 147 136 116 74 48 64 92 125 133 131 143 142 144 144 136 132 136 147 152 151 147 144 121 94 134 317 331 337 335 330 338 344 342 339 343
162 176 178 185 202 232 274 221 83 72 229 206 116 86 65 71 83 98 85 95 76 45 76 80 109 103 104 105 112 124 128 136 139 138 131 131 135 118 137 135 129 299 312 293 295 304 313 321 330 335 336 338 341 339
171 173 171 189 211 235 243 41 14 354 47 51 48 40 45 38 33 31 64 55 56 28 88 117 107 109 108 110 113 115 116 123 125 125 127 128 125 129 154 302 301 303 308 291 283 294 330 346 338 331 326 325 328 333
163 174 177 214 244 238 51 25 29 34 56 6 17 30 38 18 26 62 61 42 59 83 104 106 108 111 111 110 109 107 106 103 105 107 113 109 25 332 329 337 348 105 139 259 324 322 316 314 317 322 328 332 332 335
161 178 212 203 177 97 69 6 348 100 116 89 41 2 356 15 52 55 65 61 51 84 107 114 116 113 110 112 107 101 97 90 73 324 301 328 337 121 117 132 198 273 287 296 298 299 301 305 306 311 314 318 316 313
168 19 27 24 43 87 74 312 328 74 91 100 126 133 342 346 72 73 53 15 37 57 68 77 97 112 104 93 87 88 95 92 89 108 114 109 84 328 310 308 305 298 289 284 278 279 283 282 288 297 303 309 310 309
49 352 22 19 40 80 98 172 76 103 91 77 73 102 57 71 60 51 31 19 49 59 63 70 93 106 97 93 87 81 74 73 72 56 27 356 339 327 320 313 308 300 291 281 277 287 293 302 307 308 308 307 303 300
56 7 16 41 78 99 93 53 55 54 62 55 21 39 54 65 74 55 65 69 76 78 82 88 88 86 85 80 73 67 58 47 41 30 9 354 340 326 316 312 310 291 284 289 297 302 304 301 302 305 307 307 307 308
41 24 38 13 60 62 98 68 58 64 85 94 86 52 79 59 79 68 80 94 98 98 97 98 91 85 78 67 52 34 15 2 352 345 334 321 313 303 292 290 287 283 288 301 311 313 314 313 310 308 307 310 313 314
42 32 58 37 48 46 42 49 56 46 76 78 94 76 83 70 81 101 99 109 111 115 124 111 87 47 1 349 349 346 341 337 336 334 336 330 329 333 331 314 298 297 299 302 310 314 318 319 318 318 320 321 322 323
21 49 68 42 48 44 22 71 71 79 97 103 114 107 97 84 73 84 91 95 97 82 59 31 354 328 321 319 317 321 323 324 319 318 317 311 307 305 302 298 296 296 299 302 303 309 317 327 325 321 322 324 330 327
65 85 78 66 62 58 80 79 79 90 95 102 116 115 117 108 77 61 59 55 50 45 48 43 27 17 13 4 354 334 337 335 328 316 308 305 299 293 289 288 285 286 289 288 291 298 307 311 313 315 317 318 322 326
51 47 62 63 54 63 79 75 77 90 94 97 85 103 103 85 71 41 33 33 32 32 31 31 31 35 31 20 7 1 353 345 341 341 341 335 320 304 294 288 286 288 290 291 287 288 294 299 297 300 302 307 312 314
61 60 63 64 49 52 34 75 77 82 64 69 63 69 72 82 90 104 27 20 31 28 22 9 346 318 318 316 316 311 310 311 312 320 317 313 311 306 301 296 286 281 279 298 308 301 299 301 304 303 300 297 296 298
Wind_Speed_850mb
27 25 23 22 23 26 27 29 31 32 30 31 31 27 26 26 25 23 19 20 20 10 31 21 18 10 9 4 3 6 2 2 3 5 4 4 4 3 2 1 1 1 1 2 3 3 4 6 4 7 4 16 16 15
23 21 20 19 23 28 27 27 30 32 31 32 32 28 27 28 27 25 18 19 22 27 19 18 24 23 31 35 23 6 4 3 5 6 3 5 4 4 1 3 2 2 3 3 9 4 4 11 18 19 30 22 19 22
23 21 16 20 29 35 30 27 29 29 28 31 32 29 28 29 29 27 23 14 15 18 40 44 37 12 9 9 16 7 4 5 5 7 9 4 4 5 5 5 5 6 7 5 4 2 13 17 26 27 24 24 30 30
22 22 19 25 29 36 27 26 28 28 26 34 31 29 29 30 30 30 27 25 19 6 8 14 8 23 22 17 17 15 13 6 10 8 4 3 3 9 4 2 6 1 15 5 10 23 20 2 16 24 28 38 35 26
20 24 22 32 27 23 21 26 26 32 28 33 31 29 29 29 29 28 28 33 30 13 5 18 28 21 20 15 16 16 10 9 7 4 3 3 5 7 3 2 7 17 10 8 11 5 7 19 22 34 33 26 26 19
18 21 26 34 27 22 21 26 23 28 40 28 30 28 28 29 27 19 11 33 38 36 9 6 11 14 27 26 20 21 13 9 6 5 4 5 6 5 6 6 9 14 19 24 15 10 19 29 27 20 22 29 35 33
21 20 24 28 24 22 21 25 24 26 34 28 29 27 27 30 31 29 10 13 44 36 9 9 9 7 19 25 31 24 17 7 6 5 4 6 7 10 4 7 11 18 22 24 23 25 23 12 13 28 32 38 38 32
25 24 26 23 20 20 20 23 28 23 34 30 27 26 27 29 30 41 22 18 49 43 11 6 7 4 18 13 15 19 14 13 7 5 4 6 8 5 7 17 19 11 18 12 11 14 23 26 30 36 40 42 37 26
26 26 25 22 22 17 21 19 31 27 31 26 25 24 22 26 22 33 22 29 25 23 7 9 6 7 23 13 13 13 13 5 7 7 5 7 4 8 9 8 7 11 11 11 10 14 18 24 31 35 36 32 28 18
28 26 24 23 22 16 23 24 23 36 27 25 27 15 13 16 23 17 21 24 24 22 15 10 9 5 20 13 7 11 7 5 7 5 8 7 6 16 13 16 13 3 2 2 9 12 21 26 28 30 25 18 15 9
27 24 23 22 20 19 23 27 23 30 26 28 17 13 12 23 30 18 14 16 18 11 19 14 19 6 16 9 9 10 7 7 7 7 6 6 5 6 1 2 6 5 6 5 6 9 10 15 17 20 18 16 9 9
26 24 21 20 19 24 30 33 36 39 21 20 10 8 12 19 15 13 12 11 12 13 20 28 25 15 10 12 6 10 5 5 7 17 7 6 4 10 9 9 9 8 7 5 3 4 7 12 15 20 19 14 11 14
27 26 20 21 20 26 40 37 49 48 19 4 5 6 10 11 6 14 17 7 8 13 19 21 17 17 11 9 4 6 9 7 19 6 6 3 13 15 13 13 12 8 6 3 4 4 4 10 14 17 21 15 19 24
27 27 25 23 24 33 45 36 45 48 9 8 4 9 12 10 11 9 16 14 21 26 46 41 25 10 9 7 4 9 5 10 7 10 8 11 26 22 15 13 13 13 11 5 5 7 5 9 14 21 26 24 23 19
27 28 29 26 32 39 40 46 48 26 16 8 12 13 15 22 12 19 32 40 34 37 52 25 16 13 7 5 6 6 8 8 7 9 5 21 32 24 17 15 15 11 8 6 11 13 12 16 21 24 29 28 20 15
30 33 32 29 38 45 43 56 53 21 7 14 14 7 10 7 12 15 31 23 40 42 44 25 10 9 8 7 10 6 12 8 8 7 12 37 33 25 23 22 17 11 9 11 13 15 17 18 20 23 24 24 22 24
31 35 23 37 47 47 51 47 37 11 17 10 15 20 22 24 18 22 35 32 36 42 9 11 8 7 10 7 7 5 10 6 13 17 33 33 30 29 27 21 17 14 12 14 16 15 16 19 21 24 26 25 23 22
39 25 36 52 49 50 47 29 17 21 17 14 13 12 17 22 13 21 25 40 32 24 30 7 16 6 8 11 7 8 8 14 25 37 37 34 29 26 24 23 19 14 12 11 10 8 12 18 19 21 24 26 26 29
32 33 48 56 49 43 20 20 19 8 14 9 19 18 9 6 12 20 29 50 23 25 30 11 7 5 6 5 7 19 25 33 36 39 35 28 25 25 23 18 13 12 7 7 4 3 11 15 16 19 21 22 25 30
21 52 46 64 62 10 8 13 11 5 10 11 11 8 4 5 20 26 33 33 28 16 12 6 5 4 5 15 20 27 36 41 46 39 29 22 22 20 15 11 11 8 4 1 3 5 9 14 20 23 26 26 28 29
26 55 63 52 52 20 11 6 4 11 10 10 4 8 7 19 18 20 24 20 13 9 8 8 20 36 42 45 40 39 38 32 31 31 26 22 19 14 10 8 2 4 7 7 8 9 10 12 15 21 24 25 27 29
27 59 38 42 15 15 11 10 8 10 6 6 10 10 11 12 18 24 24 24 14 13 14 33 42 44 46 44 39 35 32 28 25 22 19 16 14 9 3 4 8 10 10 9 9 7 7 11 18 23 26 28 29 31
49 39 18 13 11 5 5 15 10 10 8 15 16 10 9 11 16 16 16 16 16 25 33 38 36 38 39 35 30 28 24 19 15 11 7 3 2 5 8 8 4 2 3 0 6 13 20 25 25 24 25 24 24 25
31 18 11 11 5 9 11 16 13 2 9 5 6 9 13 18 17 15 7 10 22 30 33 28 23 23 24 20 17 15 11 7 3 1 3 1 1 1 3 4 2 6 11 16 19 20 19 18 19 21 24 26 26 26
7 11 8 11 10 10 6 9 8 9 8 6 8 3 2 9 5 7 6 16 30 28 22 14 10 10 12 16 16 15 13 12 12 12 13 8 3 3 8 12 15 18 20 22 21 20 19 20 21 23 25 27 32 36
7 9 10 11 6 7 4 2 5 4 3 5 6 4 3 7 8 8 8 18 28 33 32 29 23 25 28 26 26 24 22 17 13 8 8 10 12 13 17 21 24 26 27 22 19 18 20 22 24 28 32 34 39 44
6 7 8 10 8 11 9 9 10 12 7 6 4 5 6 8 7 6 10 22 28 32 33 33 34 35 34 31 27 23 20 17 14 13 14 14 15 15 15 16 14 10 7 10 15 19 23 27 31 37 42 45 47 47
8 11 7 10 14 12 7 7 5 4 3 4 6 7 6 5 5 5 12 20 26 29 29 27 24 22 19 16 14 13 13 15 16 17 17 17 21 21 24 26 26 23 20 18 21 27 33 39 45 49 49 45 44 44
13 11 11 15 14 15 14 8 6 5 3 4 7 6 9 13 14 16 19 22 19 15 11 8 6 5 5 8 10 12 14 17 21 23 26 26 23 20 19 18 17 20 25 28 32 34 38 40 37 34 34 39 45 46
17 14 10 12 9 9 12 14 19 24 22 25 35 39 40 39 33 26 25 19 12 8 8 6 7 9 10 11 10 11 15 17 18 16 18 20 23 24 25 25 28 30 32 35 34 34 33 35 33 33 36 38 38 36
17 25 19 15 10 16 22 28 32 37 42 39 38 43 31 21 26 35 36 31 25 19 13 11 11 13 12 12 12 12 14 15 18 22 27 30 33 31 30 32 32 33 36 37 38 38 39 39 39 39 40 41 40 40
15 13 9 7 8 15 15 14 15 18 20 23 16 15 15 10 9 13 27 24 20 23 26 21 15 15 15 13 14 15 15 18 23 26 29 30 29 30 30 31 36 41 42 44 46 46 47 48 47 46 46 46 45 43
11 15 13 7 6 6 11 6 6 6 10 9 10 11 12 8 6 5 11 21 25 26 24 19 15 12 13 15 18 21 23 26 29 31 36 41 43 44 43 39 38 41 39 33 39 39 39 40 43 45 47 50 50 48
Wind_Direction_850mb
237 243 253 269 282 285 277 254 237 232 227 214 211 216 220 219 216 212 208 211 210 248 263 267 277 295 349 8 336 353 187 193 78 102 166 159 202 118 170 322 322 12 15 90 135 257 280 176 200 236 8 327 327 314
226 235 246 270 286 290 278 250 233 231 224 211 210 214 216 215 215 213 211 215 226 236 262 264 256 240 276 278 271 276 271 199 186 110 163 141 159 170 183 159 179 214 266 328 224 294 292 255 260 284 301 301 304 304
227 235 251 280 287 285 272 245 229 231 217 207 208 211 214 213 214 215 201 190 215 253 281 275 264 253 227 277 225 248 255 202 173 143 141 118 162 167 164 200 186 211 181 243 273 87 263 293 299 303 317 322 313 291
231 231 244 267 275 281 263 234 224 211 212 209 207 208 212 212 216 219 213 201 204 227 269 272 252 244 253 243 221 231 270 217 146 121 118 138 172 203 189 76 240 92 156 216 251 278 294 344 351 334 328 328 322 304
236 232 242 267 289 288 250 226 226 208 204 215 207 205 210 212 218 226 224 207 203 218 289 293 273 229 225 229 234 215 210 201 183 143 136 155 120 160 87 243 239 190 198 210 269 250 252 294 318 322 321 334 338 329
247 247 248 269 289 288 247 219 225 211 207 212 204 201 207 213 216 219 241 222 207 210 294 291 318 247 231 236 209 194 192 181 168 163 158 172 178 178 181 224 258 234 249 260 270 277 290 296 304 328 320 324 326 318
256 263 256 273 284 288 244 217 217 209 215 209 204 199 205 215 211 195 200 188 191 191 234 271 264 227 209 196 186 194 189 177 169 178 193 165 177 183 201 233 253 289 302 289 277 265 279 262 303 325 325 326 322 313
257 262 267 281 287 291 230 220 209 214 205 199 198 197 205 219 222 220 190 139 172 178 226 252 259 245 175 165 171 180 183 188 198 190 183 184 159 194 241 245 272 259 320 297 322 285 267 294 313 320 317 318 325 324
254 260 261 274 289 282 215 222 201 207 181 185 194 195 202 217 222 222 228 210 201 204 247 207 222 197 175 164 143 162 165 166 204 210 203 184 162 221 232 250 315 310 298 286 341 357 341 329 325 325 323 330 336 321
252 257 253 269 287 262 205 196 193 171 173 180 185 174 191 206 202 196 178 171 177 210 232 244 208 204 180 169 143 136 163 156 186 179 148 217 239 248 256 265 291 314 23 67 5 356 349 3 7 14 6 354 335 312
247 244 250 260 277 227 204 187 183 170 170 180 180 210 200 183 191 200 195 177 186 203 200 221 200 177 192 192 148 188 151 162 206 155 211 189 242 188 194 184 188 164 95 82 357 356 23 20 27 31 33 21 339 279
240 233 250 258 260 213 194 180 179 181 173 183 208 239 178 181 204 204 188 176 198 194 180 195 203 190 177 178 154 171 155 171 205 145 182 207 186 166 139 117 116 119 103 66 28 32 39 29 37 28 20 6 338 302
232 232 251 265 241 207 188 179 181 188 194 179 226 220 206 188 216 197 186 186 187 171 164 164 165 169 162 183 114 173 174 175 129 182 202 188 169 167 144 113 101 100 91 70 20 12 25 35 23 12 9 347 335 328
233 237 252 255 220 191 192 171 174 192 174 232 179 242 209 194 234 197 182 172 182 182 183 186 152 151 149 161 212 189 101 148 161 184 198 168 180 170 155 127 107 101 87 61 12 348 322 358 360 355 352 348 344 344
233 243 250 234 201 192 173 192 196 176 189 225 224 208 218 228 225 211 184 181 188 187 183 159 148 161 142 177 218 158 160 177 196 197 188 178 171 158 148 143 126 111 101 75 51 33 20 1 355 348 345 351 351 347
239 251 236 205 186 184 172 191 197 195 191 239 244 261 247 254 211 194 192 189 183 175 164 163 133 175 165 184 177 181 158 182 184 196 152 160 163 153 145 142 138 132 103 71 58 47 36 16 358 352 351 349 346 334
239 236 199 185 177 177 188 182 183 198 232 219 235 247 259 275 238 188 192 195 178 159 167 138 154 164 121 136 175 191 184 166 158 140 152 158 157 155 153 150 142 127 111 87 80 65 38 15 357 356 354 354 359 350
220 182 172 171 171 156 160 168 189 220 226 237 273 272 236 245 228 174 177 179 163 192 167 159 119 159 158 160 197 182 155 134 130 143 148 153 155 158 155 150 142 133 115 99 72 46 21 7 1 3 356 357 4 356
164 177 168 177 177 166 174 194 242 230 227 270 276 275 246 210 183 180 172 170 166 166 143 139 113 141 160 171 142 153 151 144 141 144 148 153 156 158 158 154 152 150 116 101 107 33 5 354 349 348 347 345 348 346
174 170 181 172 177 195 167 236 218 207 45 318 289 270 272 130 117 129 137 147 136 116 74 48 64 92 125 133 131 143 142 144 144 136 132 136 147 152 151 147 144 121 94 134 317 331 337 335 330 338 344 342 339 343
162 176 178 185 202 232 274 221 83 72 229 206 116 86 65 71 83 98 85 95 76 45 76 80 109 103 104 105 112 124 128 136 139 138 131 131 135 118 137 135 129 299 312 293 295 304 313 321 330 335 336 338 341 339
171 173 171 189 211 235 243 41 14 354 47 51 48 40 45 38 33 31 64 55 56 28 88 117 107 109 108 110 113 115 116 123 125 125 127 128 125 129 154 302 301 303 308 291 283 294 330 346 338 331 326 325 328 333
163 174 177 214 244 238 51 25 29 34 56 6 17 30 38 18 26 62 61 42 59 83 104 106 108 111 111 110 109 107 106 103 105 107 113 109 25 332 329 337 348 105 139 259 324 322 316 314 317 322 328 332 332 335
161 178 212 203 177 97 69 6 348 100 116 89 41 2 356 15 52 55 65 61 51 84 107 114 116 113 110 112 107 101 97 90 73 324 301 328 337 121 117 132 198 273 287 296 298 299 301 305 306 311 314 318 316 313
168 19 27 24 43 87 74 312 328 74 91 100 126 133 342 346 72 73 53 15 37 57 68 77 97 112 104 93 87 88 95 92 89 108 114 109 84 328 310 308 305 298 289 284 278 279 283 282 288 297 303 309 310 309
49 352 22 19 40 80 98 172 76 103 91 77 73 102 57 71 60 51 31 19 49 59 63 70 93 106 97 93 87 81 74 73 72 56 27 356 339 327 320 313 308 300 291 281 277 287 293 302 307 308 308 307 303 300
56 7 16 41 78 99 93 53 55 54 62 55 21 39 54 65 74 55 65 69 76 78 82 88 88 86 85 80 73 67 58 47 41 30 9 354 340 326 316 312 310 291 284 289 297 302 304 301 302 305 307 307 307 308
41 24 38 13 60 62 98 68 58 64 85 94 86 52 79 59 79 68 80 94 98 98 97 98 91 85 78 67 52 34 15 2 352 345 334 321 313 303 292 290 287 283 288 301 311 313 314 313 310 308 307 310 313 314
42 32 58 37 48 46 42 49 56 46 76 78 94 76 83 70 81 101 99 109 111 115 124 111 87 47 1 349 349 346 341 337 336 334 336 330 329 333 331 314 298 297 299 302 310 314 318 319 318 318 320 321 322 323
21 49 68 42 48 44 22 71 71 79 97 103 114 107 97 84 73 84 91 95 97 82 59 31 354 328 321 319 317 321 323 324 319 318 317 311 307 305 302 298 296 296 299 302 303 309 317 327 325 321 322 324 330 327
65 85 78 66 62 58 80 79 79 90 95 102 116 115 117 108 77 61 59 55 50 45 48 43 27 17 13 4 354 334 337 335 328 316 308 305 299 293 289 288 285 286 289 288 291 298 307 311 313 315 317 318 322 326
51 47 62 63 54 63 79 75 77 90 94 97 85 103 103 85 71 41 33 33 32 32 31 31 31 35 31 20 7 1 353 345 341 341 341 335 320 304 294 288 286 288 290 291 287 288 294 299 297 300 302 307 312 314
61 60 63 64 49 52 34 75 77 82 64 69 63 69 72 82 90 104 27 20 31 28 22 9 346 318 318 316 316 311 310 311 312 320 317 313 311 306 301 296 286 281 279 298 308 301 299 301 304 303 300 297 296 298